Time,TemperatureF,DewpointF,PressureIn,WindDirection,WindDirectionDegrees,WindSpeedMPH,WindSpeedGustMPH,Humidity,HourlyPrecipIn,Conditions,Clouds,dailyrainin,SoftwareType,DateUTC
2014-11-27 00:04:00,28.6,20.4,29.12,NNW,344,0.0,0.0,71,0.00,,,0.00,VWS V14.00,2014-11-27 05:04:00,
2014-11-27 00:09:00,28.6,20.4,29.12,NNW,344,0.0,0.0,71,0.00,,,0.00,VWS V14.00,2014-11-27 05:09:00,
2014-11-27 00:15:00,28.6,20.4,29.12,North,9,0.0,3.1,71,0.00,,,0.00,VWS V14.00,2014-11-27 05:15:00,
2014-11-27 00:20:00,28.6,20.4,29.15,NNE,28,0.0,3.1,71,0.00,,,0.00,VWS V14.00,2014-11-27 05:20:00,
2014-11-27 00:25:00,28.6,20.4,29.15,NNW,333,0.0,4.0,71,0.00,,,0.00,VWS V14.00,2014-11-27 05:25:00,
2014-11-27 00:30:00,28.6,20.4,29.15,NNW,328,0.0,4.0,71,0.00,,,0.00,VWS V14.00,2014-11-27 05:30:00,
2014-11-27 00:35:00,28.4,20.2,29.15,NNW,328,0.0,0.0,71,0.00,,,0.00,VWS V14.00,2014-11-27 05:35:00,
2014-11-27 00:40:00,28.4,20.5,29.15,NNW,328,0.0,0.0,72,0.00,,,0.00,VWS V14.00,2014-11-27 05:40:00,
2014-11-27 00:45:00,28.4,20.5,29.15,NNW,328,0.0,0.0,72,0.00,,,0.00,VWS V14.00,2014-11-27 05:45:00,
2014-11-27 00:50:00,28.2,20.4,29.12,West,261,0.0,0.0,72,0.00,,,0.00,VWS V14.00,2014-11-27 05:50:00,
2014-11-27 00:55:00,28.2,20.4,29.12,West,261,0.0,0.0,72,0.00,,,0.00,VWS V14.00,2014-11-27 05:55:00,
2014-11-27 01:00:00,28.2,20.7,29.12,NNW,327,0.0,0.0,73,0.00,,,0.00,VWS V14.00,2014-11-27 06:00:00,
2014-11-27 01:05:00,28.0,20.5,29.12,NNW,329,0.0,4.0,73,0.00,,,0.00,VWS V14.00,2014-11-27 06:05:00,
2014-11-27 01:16:00,27.9,20.3,29.12,NW,316,0.0,0.0,73,0.00,,,0.00,VWS V14.00,2014-11-27 06:16:00,
2014-11-27 01:21:00,27.7,20.2,29.12,NNW,331,0.0,0.0,73,0.00,,,0.00,VWS V14.00,2014-11-27 06:21:00,
2014-11-27 01:26:00,27.3,20.1,29.12,NNW,331,0.0,0.0,74,0.00,,,0.00,VWS V14.00,2014-11-27 06:26:00,
2014-11-27 01:31:00,27.1,20.0,29.12,NNW,331,0.0,0.0,74,0.00,,,0.00,VWS V14.00,2014-11-27 06:31:00,
2014-11-27 01:36:00,27.0,19.8,29.12,NNW,331,0.0,0.0,74,0.00,,,0.00,VWS V14.00,2014-11-27 06:36:00,
2014-11-27 01:41:00,26.8,19.6,29.12,NNW,331,0.0,0.0,74,0.00,,,0.00,VWS V14.00,2014-11-27 06:41:00,
2014-11-27 01:46:00,26.6,19.8,29.12,NNW,331,0.0,0.0,75,0.00,,,0.00,VWS V14.00,2014-11-27 06:46:00,
2014-11-27 01:51:00,26.6,19.8,29.12,NNW,331,0.0,0.0,75,0.00,,,0.00,VWS V14.00,2014-11-27 06:51:00,
2014-11-27 01:56:00,26.6,19.8,29.12,WNW,294,0.0,2.7,75,0.00,,,0.00,VWS V14.00,2014-11-27 06:56:00,
2014-11-27 02:01:00,27.0,20.4,29.12,NW,320,0.0,0.0,76,0.00,,,0.00,VWS V14.00,2014-11-27 07:01:00,
2014-11-27 02:06:00,27.1,20.6,29.12,NW,320,0.0,0.0,76,0.00,,,0.00,VWS V14.00,2014-11-27 07:06:00,
2014-11-27 02:11:00,27.3,20.8,29.12,NW,320,0.0,0.0,76,0.00,,,0.00,VWS V14.00,2014-11-27 07:11:00,
2014-11-27 02:16:00,27.3,20.8,29.12,NW,320,0.0,0.0,76,0.00,,,0.00,VWS V14.00,2014-11-27 07:16:00,
2014-11-27 02:21:00,27.5,20.9,29.12,NW,320,0.0,0.0,76,0.00,,,0.00,VWS V14.00,2014-11-27 07:21:00,
2014-11-27 02:26:00,27.7,21.1,29.12,NNW,333,0.0,3.1,76,0.00,,,0.00,VWS V14.00,2014-11-27 07:26:00,
2014-11-27 02:31:00,27.9,21.3,29.12,NNW,327,0.0,0.0,76,0.00,,,0.00,VWS V14.00,2014-11-27 07:31:00,
2014-11-27 02:36:00,28.0,21.5,29.12,NW,320,0.0,6.3,76,0.00,,,0.00,VWS V14.00,2014-11-27 07:36:00,
2014-11-27 02:42:00,27.9,21.3,29.12,WNW,287,2.7,6.3,76,0.00,,,0.00,VWS V14.00,2014-11-27 07:42:00,
2014-11-27 02:47:00,27.9,21.0,29.12,North,353,0.0,6.3,75,0.00,,,0.00,VWS V14.00,2014-11-27 07:47:00,
2014-11-27 02:52:00,27.7,20.8,29.12,North,353,0.0,6.3,75,0.00,,,0.00,VWS V14.00,2014-11-27 07:52:00,
2014-11-27 02:57:00,27.7,20.8,29.12,North,5,0.0,6.3,75,0.00,,,0.00,VWS V14.00,2014-11-27 07:57:00,
2014-11-27 03:02:00,27.7,20.8,29.15,West,271,0.0,0.0,75,0.00,,,0.00,VWS V14.00,2014-11-27 08:02:00,
2014-11-27 03:07:00,27.7,20.8,29.15,NW,305,0.0,5.4,75,0.00,,,0.00,VWS V14.00,2014-11-27 08:07:00,
2014-11-27 03:12:00,27.5,20.6,29.15,NNE,25,0.0,5.4,75,0.00,,,0.00,VWS V14.00,2014-11-27 08:12:00,
2014-11-27 03:17:00,27.3,20.1,29.15,NW,316,0.0,5.4,74,0.00,,,0.00,VWS V14.00,2014-11-27 08:17:00,
2014-11-27 03:22:00,27.1,20.0,29.15,NW,320,2.7,5.4,74,0.00,,,0.00,VWS V14.00,2014-11-27 08:22:00,
2014-11-27 03:27:00,27.1,19.6,29.15,NW,320,0.0,5.4,73,0.00,,,0.00,VWS V14.00,2014-11-27 08:27:00,
2014-11-27 03:32:00,27.1,19.6,29.15,NNW,342,2.7,4.9,73,0.00,,,0.00,VWS V14.00,2014-11-27 08:32:00,
2014-11-27 03:37:00,27.1,19.3,29.15,SSW,205,0.0,4.9,72,0.00,,,0.00,VWS V14.00,2014-11-27 08:37:00,
2014-11-27 03:42:00,27.1,19.3,29.15,NW,320,0.0,4.9,72,0.00,,,0.00,VWS V14.00,2014-11-27 08:42:00,
2014-11-27 03:47:00,27.1,19.0,29.15,NW,308,0.0,4.9,71,0.00,,,0.00,VWS V14.00,2014-11-27 08:47:00,
2014-11-27 03:52:00,27.1,18.7,29.15,North,8,0.0,4.9,70,0.00,,,0.00,VWS V14.00,2014-11-27 08:52:00,
2014-11-27 03:57:00,27.1,18.3,29.15,WNW,292,0.0,4.9,69,0.00,,,0.00,VWS V14.00,2014-11-27 08:57:00,
2014-11-27 04:02:00,27.1,18.3,29.15,NW,304,0.0,0.0,69,0.00,,,0.00,VWS V14.00,2014-11-27 09:02:00,
2014-11-27 04:07:00,27.1,18.0,29.15,NNW,327,0.0,0.0,68,0.00,,,0.00,VWS V14.00,2014-11-27 09:07:00,
2014-11-27 04:13:00,27.1,17.6,29.15,NW,313,4.0,5.4,67,0.00,,,0.00,VWS V14.00,2014-11-27 09:13:00,
2014-11-27 04:18:00,27.3,17.8,29.15,NNW,329,0.0,6.3,67,0.00,,,0.00,VWS V14.00,2014-11-27 09:18:00,
2014-11-27 04:23:00,27.3,17.5,29.15,WNW,298,0.0,6.3,66,0.00,,,0.00,VWS V14.00,2014-11-27 09:23:00,
2014-11-27 04:28:00,27.1,17.3,29.15,NW,325,0.0,6.3,66,0.00,,,0.00,VWS V14.00,2014-11-27 09:28:00,
2014-11-27 04:33:00,27.1,17.3,29.15,NW,326,0.0,4.0,66,0.00,,,0.00,VWS V14.00,2014-11-27 09:33:00,
2014-11-27 04:38:00,27.1,17.3,29.15,NW,322,0.0,4.0,66,0.00,,,0.00,VWS V14.00,2014-11-27 09:38:00,
2014-11-27 04:43:00,27.1,17.3,29.15,WNW,300,0.0,4.0,66,0.00,,,0.00,VWS V14.00,2014-11-27 09:43:00,
2014-11-27 04:48:00,27.1,17.3,29.15,NNW,328,0.0,5.4,66,0.00,,,0.00,VWS V14.00,2014-11-27 09:48:00,
2014-11-27 04:53:00,26.8,17.0,29.15,WNW,289,0.0,5.4,66,0.00,,,0.00,VWS V14.00,2014-11-27 09:53:00,
2014-11-27 04:58:00,26.6,17.1,29.15,NW,322,4.9,5.4,67,0.00,,,0.00,VWS V14.00,2014-11-27 09:58:00,
2014-11-27 05:03:00,26.6,17.1,29.15,WNW,289,0.0,3.1,67,0.00,,,0.00,VWS V14.00,2014-11-27 10:03:00,
2014-11-27 05:08:00,26.2,16.8,29.15,WNW,289,0.0,3.1,67,0.00,,,0.00,VWS V14.00,2014-11-27 10:08:00,
2014-11-27 05:13:00,26.1,16.6,29.15,NW,317,0.0,4.0,67,0.00,,,0.00,VWS V14.00,2014-11-27 10:13:00,
2014-11-27 05:18:00,25.7,16.3,29.15,WNW,302,2.7,4.9,67,0.00,,,0.00,VWS V14.00,2014-11-27 10:18:00,
2014-11-27 05:23:00,25.5,16.4,29.15,WNW,302,0.0,4.9,68,0.00,,,0.00,VWS V14.00,2014-11-27 10:23:00,
2014-11-27 05:28:00,25.2,16.1,29.15,WNW,284,0.0,4.9,68,0.00,,,0.00,VWS V14.00,2014-11-27 10:28:00,
2014-11-27 05:33:00,25.0,15.9,29.15,West,273,0.0,0.0,68,0.00,,,0.00,VWS V14.00,2014-11-27 10:33:00,
2014-11-27 05:38:00,24.6,15.6,29.15,West,273,0.0,0.0,68,0.00,,,0.00,VWS V14.00,2014-11-27 10:38:00,
2014-11-27 05:43:00,24.4,15.4,29.15,West,273,0.0,0.0,68,0.00,,,0.00,VWS V14.00,2014-11-27 10:43:00,
2014-11-27 05:48:00,24.8,16.1,29.15,WNW,297,0.0,0.0,69,0.00,,,0.00,VWS V14.00,2014-11-27 10:48:00,
2014-11-27 05:53:00,25.2,16.4,29.15,WNW,297,0.0,0.0,69,0.00,,,0.00,VWS V14.00,2014-11-27 10:53:00,
2014-11-27 05:59:00,25.3,16.6,29.15,WNW,297,0.0,0.0,69,0.00,,,0.00,VWS V14.00,2014-11-27 10:59:00,
2014-11-27 06:04:00,25.5,16.8,29.15,WNW,297,0.0,0.0,69,0.00,,,0.00,VWS V14.00,2014-11-27 11:04:00,
2014-11-27 06:09:00,25.7,16.6,29.15,West,279,3.1,5.8,68,0.00,,,0.00,VWS V14.00,2014-11-27 11:09:00,
2014-11-27 06:14:00,26.2,16.8,29.15,West,268,0.0,5.8,67,0.00,,,0.00,VWS V14.00,2014-11-27 11:14:00,
2014-11-27 06:19:00,26.2,16.8,29.15,West,268,0.0,5.8,67,0.00,,,0.00,VWS V14.00,2014-11-27 11:19:00,